sat.trackr.live / text

‹ back to catalog

STARLINK-5942

NORAD 56014 · 2023-042AE

PAYLOAD ACTIVE UNKNOWN

§ Identity

Operator
Country
US
Launch date
2023-03-24
Launch site
AFETR
Launch vehicle
Mass (kg)
RCS (m²)

Purposes: comms

External: N2YO · Heavens-Above · Gunter

§ Orbital elements

Epoch: 2026-05-24T17:11:30.430752Z

Period
94.27 min
Inclination
43.0048°
Eccentricity
0.0001926
Mean motion
15.27583145 rev/d
Perigee alt
481.7 km
Apogee alt
484.4 km
Semi-major
6,861.2 km
B*
8.6151e-5
RAAN
335.8032°
Arg perigee
279.6054°
Mean anomaly
80.4580°
Rev number
17,466

§ Raw data

STARLINK-59421 56014U 23042AE  26144.71632443  .00002109  00000+0  86151-4 0  99902 56014  43.0048 335.8032 0001926 279.6054  80.4580 15.27583145174662

JSON: /api/v1/satellites/56014 · /tle

For live sub-satellite position, see the globe view (requires WebGL).

§ Visibility from observer

Set your observer location to see the next 7 days of passes ≥ 10°. The values pass through the URL so the page stays shareable.

No JS? Fill the form by hand. The geolocation button needs JavaScript.